Regional Weather Roundup
Issued by NWS

Home | Current Version | Previous Version | Graphics & Text | Print | Product List | Glossary On
Versions: 1 2 3 4 5 6 7 8 9 10 11 12 13 14 15 16 17 18 19 20 21 22 23 24 25 26 27 28 29 30 31 32 33 34 35 36 37 38 39 40 41 42 43 44 45 46 47 48 49 50
000
ASUS43 KDMX 100806
RWRIA

WEATHER ROUNDUP FOR IOWA
NATIONAL WEATHER SERVICE DES MOINES IA
200 AM CST SUN DEC 10 2017

NOTE: "FAIR" INDICATES FEW OR NO CLOUDS BELOW 12,000 FEET WITH NO
SIGNIFICANT WEATHER AND/OR OBSTRUCTIONS TO VISIBILITY.

* - THESE STATIONS ARE NOT NWS STATIONS...THUS NOT UNDER NWS
QUALITY CONTROL.  THEY ALSO DO NOT REPORT WEATHER SUCH
AS PRECIPITATION OR FOG.

IAZ001>003-012>014-020>022-031>034-043>046-100900-
   NORTHWEST IOWA

CITY           SKY/WX    TMP DP  RH WIND       PRES   REMARKS
CARROLL *      CLEAR     28  21  74 SW17G30   29.89F WCI  16
CHEROKEE *     CLEAR     27  22  80 SW6       29.91R WCI  21
DENISON *      CLOUDY    25  19  80 SW8       29.94F WCI  16
LE MARS *      CLOUDY    32  25  74 N5        29.93R WCI  27
ORANGE CITY *  CLEAR     32  27  80 NW14      29.91R WCI  22
SHELDON *      CLOUDY    30  23  74 NW14G23   29.88R WCI  20
SIOUX CITY     CLOUDY    31  22  69 NW9       29.95S WCI  23
SPENCER        CLEAR     27  21  78 W13       29.88S WCI  16
STORM LAKE *   CLEAR     28  21  74 W15G22    29.89R WCI  17
$$

IAZ055>058-069>071-079>083-090>094-100900-
   SOUTHWEST IOWA

CITY           SKY/WX    TMP DP  RH WIND       PRES   REMARKS
ATLANTIC *     CLOUDY    23  19  86 SW8       29.98F WCI  14
AUDUBON *      CLOUDY    27  21  80 SW10      29.94F WCI  17
CLARINDA *     CLOUDY    19  18  93 SW6       30.03F WCI  11
COUNCIL BLFS * CLOUDY    28  23  80 SW6       29.98F WCI  22
CRESTON *      CLOUDY    23  19  86 SW12      29.98F WCI  12
HARLAN  *      CLOUDY    21  19  93 S6        30.00F WCI  14
LAMONI         CLOUDY    22  16  78 SW14      30.01F WCI   9
RED OAK *      CLOUDY    23  19  86 S6        30.00F WCI  16
SHENANDOAH *   CLOUDY    27  21  80 S6        30.03F WCI  20
$$

IAZ047>049-059>061-072>074-084-100900-
   CENTRAL IOWA

CITY           SKY/WX    TMP DP  RH WIND       PRES   REMARKS
AMES           CLEAR     25  20  81 SW12      29.91F WCI  14
ANKENY *       CLEAR     27  19  74 SW14G23   29.94F WCI  15
BOONE *        CLOUDY    25  19  80 SW10G17   29.89F WCI  15
CHARITON *     CLEAR     25  18  74 SW13      29.98F WCI  13
DES MOINES     CLOUDY    26  18  71 SW14      29.94F WCI  14
GRINNELL*      PTCLDY    22  17  79 SW13      29.96F WCI  10
KNOXVILLE *    CLOUDY    25  16  68 MISG      29.95F
MARSHALLTOWN   CLOUDY    23  17  78 S9        29.93F WCI  13
NEWTON *       CLOUDY    25  18  74 SW8G16    29.94F WCI  16
PELLA *        CLOUDY    25  17  73 SW13G18   29.97F WCI  13
PERRY *          N/A     28  20  73 SW15      29.91F WCI  16
$$

IAZ004>006-015-016-023>025-035-036-100900-
   NORTH CENTRAL IOWA

CITY           SKY/WX    TMP DP  RH WIND       PRES   REMARKS
ALGONA *       CLOUDY    23  19  86 SW9       29.86S WCI  13
CLARION *      CLEAR     21  18  86 SW9       29.88S WCI  11
ESTHERVILLE    CLEAR     27  22  81 W13       29.85F WCI  16
FORT DODGE *   CLEAR     23  18  81 SW8       29.90R WCI  14
MASON CITY     CLEAR     25  18  74 SW15      29.86F WCI  13
FOREST CITY *    N/A     23  19  86 SW8       29.85F WCI  14
WEBSTER CITY * CLOUDY    27  18  69 SW12      29.87R WCI  16
IOWA FALLS *     N/A     23  18  81 S7        29.90F WCI  15
$$

IAZ007>011-017>019-026>030-037>042-050>054-066-100900-
   NORTHEAST IOWA

CITY           SKY/WX    TMP DP  RH WIND       PRES   REMARKS
CEDAR RAPIDS   CLOUDY    21  15  78 S8        29.97F WCI  11
CHARLES CITY * CLOUDY    21  14  73 S10       29.87F WCI  10
CLINTON *      CLOUDY    22  17  81 SW12      30.01F WCI  10
DECORAH *      CLOUDY    23  16  74 S9G18     29.84F WCI  13
DUBUQUE        CLOUDY    21  14  74 SW12      29.94F WCI   9
MONTICELLO *   CLOUDY    21  14  73 S8        29.97F WCI  12
OELWEIN *      CLOUDY    19  16  86 S12       29.92F WCI   7
WATERLOO       CLOUDY    21  14  74 S7        29.92F WCI  12
$$

IAZ064-065-067-068-078-100900-
   EAST CENTRAL IOWA

CITY           SKY/WX    TMP DP  RH WIND       PRES   REMARKS
DAVENPORT      CLOUDY    23  15  71 S6        30.05F WCI  16
IOWA CITY      CLOUDY    24  15  68 S8        30.02F WCI  15
MT. PLEASANT * CLOUDY    22  14  73 S12       30.03F WCI  10
MUSCATINE *    CLOUDY    23  16  74 S8        30.04F WCI  14
QUAD CITIES    CLOUDY    23  15  71 SW5       30.04F WCI  17
$$

IAZ062-063-075>077-085>089-095>099-100900-
   SOUTHEAST IOWA

CITY           SKY/WX    TMP DP  RH WIND       PRES   REMARKS
FAIRFIELD *    CLOUDY    23  14  68 S7        30.01F WCI  15
FORT MADISON * CLOUDY    23  16  74 S8        30.05F WCI  14
KEOKUK *       PTCLDY    23  16  74 S7        30.06F WCI  15
OSKALOOSA *      N/A     23  16  77 SW12      29.99F WCI  11
OTTUMWA        CLOUDY    24  16  71 SW12      29.99F WCI  13
WASHINGTON *   CLOUDY    23  18  80 SW12      30.01F WCI  12
$$

ABBREVIATIONS USED IN REMARKS
   TC - TEMPERATURES IN CELSIUS
  WCI - WIND CHILL INDEX
   HX - HEAT INDEX
  VSB - VISIBILITY
$$





USA.gov is the U.S. government's official web portal to all federal, state and local government web resources and services.